Probability
0 0 0 0 0 0 0 0 0 0 0 0 0 0 0 0 0 0 0 0 0 0 0 0 0 0 0 0 0 0 0 0 0 0 0 0 0 0 0 0 0 0 0
0 0 0 0 0 0 0 0 0 0 0 0 0 0 0 0 0 0 0 0 0 0 0 0 0 0 0 0 0 0 0 0 0 0 0 0 0 0 0 0 0 0 0
0 0 0 0 0 0 0 0 0 0 0 0 0 0 0 0 0 0 0 0 0 0 1 1 0 0 0 0 0 0 1 1 1 0 0 0 0 0 0 0 0 0 0
0 0 0 0 0 0 0 0 0 0 0 0 0 0 0 0 0 0 0 0 0 0 1 1 0 0 0 0 0 1 2 2 2 1 1 0 0 0 0 0 0 0 0
0 0 0 0 0 0 0 0 0 0 0 0 0 0 0 0 0 0 0 0 0 0 1 1 0 0 0 0 1 2 2 2 2 2 2 1 1 1 0 0 0 0 0
0 0 0 0 0 0 0 0 0 0 0 0 0 0 0 0 0 0 0 0 0 0 0 0 0 1 1 1 1 2 1 1 2 3 3 3 2 2 1 0 0 0 0
0 0 0 0 0 0 0 0 0 0 0 0 0 0 0 0 0 0 0 0 0 0 0 0 0 1 1 1 1 1 1 2 2 3 3 3 3 2 1 0 0 0 0
0 0 0 0 0 0 0 0 0 0 0 0 0 0 0 0 0 0 0 0 0 0 0 0 0 1 1 0 0 0 2 3 3 3 3 3 2 2 1 0 0 0 0
0 0 0 0 0 0 0 0 0 0 0 0 0 0 0 0 0 0 0 0 0 0 0 0 0 0 0 0 0 0 1 1 1 1 2 3 4 4 3 2 1 0 0
0 0 0 0 0 0 0 0 0 0 0 0 0 0 0 0 0 0 0 0 0 0 0 0 0 0 0 0 0 0 0 0 0 1 2 3 5 6 6 5 2 0 0
0 0 0 0 0 0 0 0 0 0 1 1 1 0 0 0 0 0 0 0 0 0 0 0 0 0 0 0 0 0 0 0 0 1 2 3 4 5 6 6 3 1 0
0 0 0 0 0 0 0 0 1 1 2 2 2 1 1 1 0 0 0 0 0 0 0 0 0 0 0 0 0 0 0 0 0 0 1 2 2 3 4 4 4 2 1
0 0 0 0 0 0 1 1 2 3 3 3 3 3 3 2 1 0 0 0 0 0 0 0 0 0 0 0 0 0 0 0 0 0 0 1 1 1 1 2 3 2 1
0 0 1 1 1 1 2 3 3 3 3 3 3 3 4 4 3 1 1 0 0 0 0 0 0 0 0 0 0 0 0 0 0 0 0 0 0 0 0 1 1 1 0
1 1 2 2 1 2 3 3 3 3 3 3 4 4 5 4 3 3 2 1 0 0 0 0 0 0 0 0 0 0 0 0 0 0 0 0 0 0 0 0 0 0 0
2 3 3 2 1 2 3 3 3 3 3 4 5 6 5 4 3 3 3 2 1 0 0 0 0 0 0 0 0 0 0 0 0 0 0 0 0 0 0 0 0 0 0
4 4 3 2 1 2 3 3 3 3 3 4 5 5 4 3 2 2 3 3 2 1 0 0 0 0 0 0 0 0 0 0 0 0 0 0 0 0 0 0 0 0 0
5 4 3 2 2 3 3 3 3 3 3 3 4 3 2 1 1 1 1 2 2 1 0 0 0 0 0 0 0 0 0 0 0 0 0 0 0 0 0 0 0 0 0
4 3 3 3 3 3 3 3 3 3 3 3 3 3 2 1 1 0 0 1 1 0 0 0 0 0 0 0 0 0 0 0 0 0 0 0 0 0 0 0 0 0 0
2 2 3 3 3 3 3 3 3 3 3 3 3 3 3 3 2 1 0 0 0 0 0 0 0 0 0 0 0 0 0 0 0 0 0 0 0 0 0 0 0 0 0
2 2 3 3 2 2 2 2 2 3 3 3 3 3 3 3 2 1 0 0 0 0 0 0 0 0 0 0 0 0 0 0 0 0 0 0 0 0 0 0 0 0 0
6 5 4 3 1 1 1 1 1 1 2 3 3 3 3 3 2 1 0 0 0 0 0 0 0 0 0 0 0 0 0 0 0 0 0 0 0 0 0 0 0 0 0
14 10 6 4 2 1 0 0 0 0 1 1 3 3 3 2 1 0 0 0 0 0 0 0 0 0 0 0 0 0 0 0 0 0 0 0 0 0 0 0 0 0 0
16 13 8 5 3 1 0 0 0 0 0 1 2 2 2 1 0 0 0 0 0 0 0 0 0 0 0 0 0 0 0 0 0 0 0 0 0 0 0 0 0 0 0
16 13 9 6 3 1 0 0 0 1 1 1 1 1 1 0 0 0 0 0 0 0 0 0 0 0 0 0 0 0 0 0 0 0 0 0 0 0 0 0 0 0 0
17 13 9 6 4 2 1 0 1 2 2 2 1 0 0 0 0 0 0 0 0 0 0 0 0 0 0 0 0 0 0 0 0 0 0 0 0 0 0 0 0 0 0
Wind_Speed
1 1 1 1 1 1 1 1 1 1 1 1 1 1 2 2 2 2 2 6 6 7 8 8 9 9 9 10 10 9 9 9 9 8 8 8 8 9 8 8 8 8 8
2 2 1 1 1 1 1 1 1 1 0 0 0 1 2 2 2 2 2 3 6 7 7 8 9 9 10 10 10 10 10 10 9 9 9 9 9 9 9 9 9 8 8
3 2 1 1 1 1 1 1 0 1 0 0 1 1 1 2 2 3 3 2 3 5 7 8 8 9 10 10 10 11 10 10 9 9 9 8 8 8 8 9 9 9 9
3 3 2 2 1 1 1 1 1 1 0 0 0 0 0 1 2 3 2 2 2 3 5 7 7 8 9 10 11 11 11 11 10 10 10 10 10 9 9 9 10 9 9
4 3 2 2 2 2 1 2 2 2 1 1 0 1 1 1 2 2 3 3 3 3 3 5 7 7 8 9 9 9 10 10 11 11 11 11 11 11 10 10 10 10 10
4 3 2 3 3 2 2 2 2 1 1 1 0 0 1 1 1 2 3 3 3 4 3 3 3 4 6 7 8 9 10 10 10 10 11 11 12 11 10 10 10 10 10
3 3 3 3 3 2 3 3 2 2 1 1 1 1 1 1 1 1 2 2 3 3 3 3 3 2 3 5 7 8 9 10 10 10 10 11 11 11 10 10 10 10 10
4 4 4 3 3 3 3 3 3 2 1 2 2 1 1 2 1 1 1 2 2 2 3 3 3 4 3 2 3 6 8 8 8 8 8 9 9 9 10 11 11 11 12
3 3 4 4 3 3 3 4 4 4 3 2 2 3 2 2 1 1 1 1 1 2 2 2 4 4 4 3 3 5 7 7 8 9 8 9 9 9 9 10 11 11 11
3 3 4 4 4 3 4 4 4 3 3 2 2 2 2 3 2 1 1 1 1 2 2 2 3 3 3 3 3 4 5 6 7 8 9 9 9 9 10 10 10 10 10
2 3 3 4 4 3 4 4 3 4 3 3 3 2 2 1 2 2 2 1 1 1 2 2 2 2 3 3 3 4 4 5 5 6 7 7 8 8 9 9 10 10 10
1 2 3 3 3 3 4 4 4 4 4 4 3 3 3 3 3 3 3 2 2 1 1 2 2 2 2 2 3 4 4 4 3 3 3 4 4 5 6 7 8 8 8
2 2 3 3 3 3 3 3 3 3 4 4 4 3 3 3 2 3 2 2 2 1 1 1 1 1 1 1 1 2 2 1 1 1 0 1 1 2 2 3 3 4 5
3 3 3 3 3 3 3 3 2 3 3 4 4 4 3 3 3 3 3 3 2 1 1 2 1 1 0 1 1 1 0 2 2 2 1 1 2 2 2 2 1 1 1
3 3 4 3 3 3 3 3 2 3 2 3 3 3 3 2 3 3 3 3 3 3 3 2 1 1 0 0 0 1 1 2 3 2 3 3 3 2 2 2 2 2 2
3 3 3 3 3 3 3 3 2 2 3 2 2 2 2 2 2 2 3 3 3 3 3 1 1 1 1 1 2 2 2 4 5 4 4 4 3 3 3 3 3 2 2
4 4 4 4 3 3 2 2 2 3 3 2 2 2 1 1 1 2 2 2 2 2 2 1 1 0 1 1 2 2 2 2 3 5 5 5 4 4 4 4 4 4 4
4 4 4 3 3 3 2 3 3 3 3 3 2 2 1 1 1 1 1 2 2 2 3 2 1 1 1 1 2 2 2 2 2 4 5 5 5 4 4 4 4 4 4
4 3 3 3 3 3 3 3 3 3 3 3 2 2 2 2 1 1 1 2 1 2 2 3 2 1 1 1 2 2 2 2 2 3 4 5 6 6 6 5 5 5 5
4 4 3 3 3 3 3 3 3 3 2 2 2 2 2 3 2 2 2 2 2 2 2 3 2 1 1 1 2 2 1 1 1 2 3 3 4 5 5 6 6 6 6
4 3 3 3 3 3 3 3 3 3 3 3 2 2 2 2 3 2 2 2 3 2 2 2 2 2 1 2 2 1 2 1 1 1 1 1 2 2 2 3 4 5 6
3 3 3 3 3 2 3 4 3 3 3 3 3 2 2 2 2 2 3 3 4 3 3 3 2 3 3 3 2 3 3 2 1 1 1 0 1 1 1 1 3 4 5
4 4 3 3 3 3 4 4 4 3 3 3 3 2 1 1 1 2 3 3 2 2 3 4 4 3 3 4 4 4 3 2 2 2 2 1 0 0 0 1 3 4 4
4 4 4 4 3 3 4 5 4 3 2 2 2 2 2 1 2 3 3 3 2 2 1 2 2 3 3 4 4 4 4 3 2 1 2 2 1 1 1 1 2 3 3
4 3 3 4 4 4 5 5 4 2 2 1 1 1 2 2 3 4 3 3 2 1 2 2 2 2 3 4 5 4 4 3 2 1 1 2 1 1 1 1 2 3 3
4 4 3 4 4 3 4 5 5 2 2 2 1 1 1 2 3 4 3 3 2 1 1 2 2 2 2 4 6 4 4 3 2 2 3 2 2 2 1 1 1 2 3
Wind_Direction
148 137 115 95 100 103 105 99 98 94 88 78 136 154 161 176 181 187 205 213 209 206 204 202 199 198 200 201 200 199 198 196 196 196 200 204 204 203 204 204 201 201 200
169 161 156 151 155 144 138 127 129 113 112 121 131 153 173 188 196 197 206 222 219 211 211 210 209 208 206 206 206 203 206 205 203 202 206 211 213 212 212 212 211 211 209
176 168 170 184 196 155 140 131 120 98 121 120 121 149 178 201 205 208 208 215 224 220 217 216 216 215 215 213 212 210 211 212 209 206 207 209 212 214 217 218 218 218 216
178 168 173 193 175 152 152 151 143 110 68 111 130 280 235 223 223 218 215 221 227 228 225 222 221 220 219 219 218 217 217 217 215 214 214 214 216 218 220 223 225 223 221
180 174 182 185 162 156 164 177 149 151 169 177 214 261 263 247 236 224 219 223 227 228 227 228 226 223 225 225 224 223 221 219 219 220 221 222 223 223 223 223 226 225 223
184 175 182 185 168 164 175 166 161 153 167 171 171 9 316 277 256 229 228 223 220 221 223 230 227 228 228 233 234 230 226 224 221 223 226 227 226 225 225 223 224 228 228
185 179 188 178 176 182 189 173 158 158 169 148 110 16 353 348 283 249 234 226 227 223 220 227 221 227 236 240 239 235 234 233 231 230 230 230 230 226 225 224 222 226 229
193 192 186 187 186 180 180 179 163 159 185 171 149 122 335 337 353 317 251 228 231 221 224 228 221 224 229 231 236 234 238 239 240 238 237 233 231 228 227 225 225 227 229
199 194 188 186 187 183 192 194 181 176 190 200 179 161 173 229 288 318 289 252 236 228 236 235 228 228 227 227 237 243 241 242 245 246 242 235 230 228 226 228 228 229 230
205 199 192 191 193 192 198 205 194 188 179 200 200 203 193 174 181 270 299 275 256 243 242 242 241 231 226 225 229 232 239 244 249 250 249 239 232 228 226 229 232 231 232
217 208 198 193 200 204 204 203 195 194 191 195 193 187 188 186 186 197 252 268 276 254 244 239 238 236 231 227 230 237 241 244 250 254 256 250 241 232 228 229 234 238 237
224 213 204 199 201 205 210 209 204 202 204 203 201 193 186 184 193 192 220 245 262 267 258 248 239 236 235 234 237 241 237 237 241 253 265 261 239 236 235 233 236 239 237
218 217 210 208 207 211 209 203 205 213 211 208 208 211 210 212 189 183 195 220 241 264 284 273 246 237 238 232 252 252 235 204 196 199 215 214 187 217 231 229 233 234 229
217 210 203 209 212 207 205 196 205 215 212 214 218 212 214 219 203 193 185 181 213 233 243 258 289 248 233 225 239 252 205 124 121 115 112 113 117 118 121 125 127 143 169
213 202 199 204 213 207 196 189 203 214 212 214 217 216 220 224 213 210 198 192 194 216 235 219 225 238 201 107 99 128 123 103 92 83 89 88 91 91 97 104 100 91 97
207 197 201 201 206 207 198 191 196 203 200 216 218 217 218 216 209 207 206 208 207 204 220 206 210 203 166 110 89 86 90 92 82 79 76 74 81 89 92 92 92 84 94
199 198 201 196 202 209 204 193 202 193 191 204 206 196 200 183 193 201 198 196 198 188 208 219 167 114 115 110 82 74 76 78 78 79 77 76 81 88 94 95 91 94 100
200 197 193 193 202 205 195 191 195 187 188 195 202 184 200 188 192 204 197 198 193 185 188 204 177 161 134 130 105 88 75 80 79 79 80 78 80 86 90 93 94 97 97
193 185 183 191 195 192 188 190 188 190 193 195 193 191 197 181 204 211 201 194 186 176 177 180 176 150 130 122 109 92 80 64 72 76 78 75 77 79 82 88 93 93 93
185 183 183 185 188 187 190 192 193 192 193 194 194 196 197 200 206 203 197 192 178 164 159 162 155 142 127 119 131 133 107 72 61 61 64 66 73 77 79 84 91 92 94
187 180 171 175 179 184 196 196 199 194 192 193 198 208 217 212 193 185 182 181 168 160 157 158 153 143 149 158 171 158 156 123 83 70 81 58 62 63 66 82 94 95 93
180 168 178 185 185 200 209 197 190 191 194 197 204 213 225 223 200 176 166 156 155 166 176 173 174 181 189 182 159 157 158 158 183 174 158 111 92 85 56 80 85 98 100
178 174 185 189 199 213 207 204 194 183 194 205 207 208 218 189 145 132 130 124 121 141 172 175 183 195 191 185 169 170 178 180 189 162 159 168 151 202 217 118 119 117 116
181 187 191 192 199 213 203 202 189 172 183 197 200 200 194 179 157 145 132 115 101 91 127 162 183 194 192 180 179 171 161 145 115 119 163 177 177 201 197 190 160 151 140
185 185 182 187 197 207 199 194 180 168 170 175 168 173 174 175 166 149 140 137 128 98 81 103 119 124 129 143 150 142 146 151 172 184 174 184 173 186 206 212 196 188 172
196 189 186 188 193 202 195 188 183 171 174 179 164 157 164 179 169 157 157 157 165 188 134 104 93 92 116 141 155 166 169 168 164 192 177 178 166 164 206 205 208 206 204